Regional Weather Roundup
Issued by NWS

Home | Current Version | Previous Version | Text Only | Print | Product List | Glossary Off
Versions: 1 2 3 4 5 6 7 8 9 10 11 12 13 14 15 16 17 18 19 20 21 22 23 24 25 26 27 28 29 30 31 32 33 34 35 36 37 38 39 40 41 42 43 44 45 46 47 48 49 50

000
ASUS43 KLMK 221702
RWRKY
KENTUCKY REGIONAL WEATHER ROUNDUP
NATIONAL WEATHER SERVICE LOUISVILLE KY
100 PM EDT SUN APR 22 2018

NOTE "FAIR" INDICATES FEW OR NO CLOUDS BELOW 12,000 FEET
WITH NO SIGNIFICANT WEATHER AND/OR OBSTRUCTIONS TO VISIBILITY.

KYZ001>023-026-027-061>063-070>075-221800-
WESTERN AND SOUTH CENTRAL KENTUCKY

CITY           SKY/WX    TMP DP  RH WIND       PRES   REMARKS
PADUCAH        RAIN      52  48  86 E13       30.09S FOG
HENDERSON      FAIR      65  43  44 E9        30.13F
OWENSBORO      FAIR      69  46  43 SE14      30.14F
HOPKINSVILLE   LGT RAIN  56  56 100 E9        30.10F
BOWLING GREEN  CLOUDY    66  49  54 SE12G22   30.15F
GLASGOW        NOT AVBL
$$

KYZ024-025-028>034-038-045-046-053-221800-
NORTH CENTRAL KENTUCKY

CITY           SKY/WX    TMP DP  RH WIND       PRES   REMARKS
LOUISVILLE/SDF CLOUDY    69  37  30 NE7       30.19F
LOUISVILLE/LOU FAIR      68  39  34 E8        30.19F
FORT KNOX      FAIR      68  37  32 E9        30.18F
$$

KYZ035>037-039>044-047>052-055>060-089>105-221800-
NORTHEAST KENTUCKY

CITY           SKY/WX    TMP DP  RH WIND       PRES   REMARKS
LEXINGTON      FAIR      68  42  38 NE9       30.22F
COVINGTON      CLOUDY    60  28  29 E15       30.26F
FRANKFORT      FAIR      65  37  35 NE7       30.21F
$$

KYZ054-064>069-076>088-106>120-221800-
SOUTHEAST KENTUCKY

CITY           SKY/WX    TMP DP  RH WIND       PRES   REMARKS
JACKSON        FAIR      68  35  29 CALM      30.24F
LONDON         FAIR      66  38  35 CALM      30.22F
SOMERSET       NOT AVBL
MIDDLESBORO    FAIR      66  39  36 SE3       30.24F
MONTICELLO     CLOUDY    62  41  46 SE5       30.22F
$$




USA.gov is the U.S. government's official web portal to all federal, state and local government web resources and services.